Regional Weather Roundup
Issued by NWS

Home | Current Version | Previous Version | Graphics & Text | Print | Product List | Glossary On
Versions: 1 2 3 4 5 6 7 8 9 10 11 12 13 14 15 16 17 18 19 20 21 22 23 24 25 26 27 28 29 30 31 32 33 34 35 36 37 38 39 40 41 42 43 44 45 46 47 48 49 50
000
ASUS43 KLOT 171503
RWRIL

ILLINOIS REGIONAL WEATHER ROUNDUP
NATIONAL WEATHER SERVICE CHICAGO/ROMEOVILLE IL
900 AM CST FRI NOV 17 2017

NOTE: "FAIR" INDICATES FEW OR NO CLOUDS BELOW 12,000 FEET WITH NO
SIGNIFICANT WEATHER AND/OR OBSTRUCTIONS TO VISIBILITY.

* THESE STATIONS ARE NOT UNDER NWS QUALITY CONTROL. THEY ALSO MAY NOT
  REPORT WEATHER SUCH AS PRECIPITATION OR FOG.

ILZ001-002-007-009-015-016-024-171600-
NORTHWEST ILLINOIS

CITY           SKY/WX    TMP DP  RH WIND       PRES   REMARKS
MOLINE         LGT RAIN  36  31  82 SE12      29.93F WCI  28
STERLING*      CLOUDY    35  31  85 SE10G18   29.98F WCI  27
SAVANNA*       CLOUDY    35  31  84 S14       29.96S WCI  26
$$

ILZ003-004-008-010-011-017-018-171600-
NORTH CENTRAL ILLINOIS

CITY           SKY/WX    TMP DP  RH WIND       PRES   REMARKS
ROCKFORD       CLOUDY    35  29  78 S21       30.01F WCI  24
FREEPORT*      CLOUDY    34  30  85 SE15G25   29.97F WCI  24
ROCHELLE*      CLOUDY    33  31  91 SE18G25   30.01F WCI  22
DE KALB*       CLOUDY    35  31  85 S23G29    30.01F WCI  23
PERU*          CLOUDY    32  29  88 SE20G25   30.02F WCI  21
$$

ILZ005-006-012>014-019>023-171600-
NORTHEAST ILLINOIS

CITY           SKY/WX    TMP DP  RH WIND       PRES   REMARKS
CHICAGO-OHARE  CLOUDY    37  30  75 S18G26    30.05F WCI  27
CHICAGO-MIDWAY CLOUDY    38  31  76 S17       30.08F WCI  28
AURORA         CLOUDY    36  31  82 SE15G29   30.04F WCI  27
LANSING*       PTSUNNY   36  32  86 S14G20    30.10F WCI  27
JOLIET*        CLOUDY    37  32  84 S14G22    30.08F WCI  28
WAUKEGAN       PTSUNNY   38  32  79 S13       30.05F WCI  30
DUPAGE AIRPORT CLOUDY    35  31  85 S14       30.04F WCI  26
KANKAKEE*      CLOUDY    36  31  83 SE16G22   30.10F WCI  26
WHEELING       CLOUDY    37  32  82 S18G28    30.07F WCI  27
MORRIS*        CLOUDY    35  31  84 S18       30.04F WCI  24
ROMEOVILLE*    CLOUDY    35  31  87 S16       30.07F WCI  25
NORTHERLY ISL    N/A     37  31  79 SE14        N/A  WCI  28
$$

LMZ740>746-171600-
SOUTHERN LAKE MICHIGAN

STATION/POSITION SKY/WX   TEMP    WIND        PRES    VSBY  WAVE
                          AIR SEA DIR/SP/G                  HT/PER
                          (F)     (DEG/KT/KT) (MB)    (MI)  (FT/S)
SOUTHERN BUOY              40 50  160/ 19/ 25 1019.4          5/ 5
HARRISON CRIB              37     180/ 25/ 28   N/A
BURNHAM HARBOR             37     150/ 14/ 15   N/A
CALUMET HARBOR             36     150/ 10/ 14 1018.6F
BURNS HARBOR               37     170/ 10/ 17 1020.0F
MICHIGAN CITY              36     140/ 15/ 19   N/A
$$

ILZ025>027-034>036-040-047-049-050-058-095>099-171600-
WEST-CENTRAL ILLINOIS

CITY           SKY/WX    TMP DP  RH WIND       PRES   REMARKS
QUINCY         CLOUDY    39  33  79 SE17      29.92F HAZE    WCI  30
GALESBURG*     CLOUDY    36  33  89 SE9G16    29.96F WCI  29
MACOMB*        CLOUDY    36  34  93 SE16      29.98F FOG     WCI  26
JACKSONVILLE*  CLOUDY    35  33  91 SE9       30.00F FOG     WCI  28
PITTSFIELD*    CLOUDY    37  35  91 SE13      29.98F FOG     WCI  29
$$

ILZ028>032-037-038-041>044-048-051>054-059>061-171600-
CENTRAL ILLINOIS

CITY           SKY/WX    TMP DP  RH WIND       PRES   REMARKS
PONTIAC        CLOUDY    34  34  99 SE16      30.06F WCI  24
BLOOMINGTON    CLOUDY    33  30  88 S21       30.04F WCI  21
DECATUR        CLOUDY    34  31  88 S16       30.07F FOG     WCI  24
PEORIA         CLOUDY    37  31  78 S16G24    30.01F WCI  28
LACON*         CLOUDY    35  31  87 S14       30.01F WCI  26
LINCOLN*       CLOUDY    35  33  94 S18       30.04F FOG     WCI  24
SPRINGFIELD    CLOUDY    37  33  85 S20G25    30.04F FOG     WCI  27
TAYLORVILLE    CLOUDY    33  32  95 SE15      30.05F FOG     WCI  23
$$

ILZ033-039-045-046-055>057-062-063-171600-
EAST-CENTRAL ILLINOIS

CITY           SKY/WX    TMP DP  RH WIND       PRES   REMARKS
CHAMPAIGN      MOSUNNY   33  30  88 SE18      30.08F FOG     WCI  22
DANVILLE*      CLOUDY    33  31  92 SE15      30.08F WCI  22
RANTOUL*       CLOUDY    34  32  91 SE17      30.08F WCI  24
MATTOON        CLOUDY    32  31  96 S10       30.09F FOG     WCI  24
PARIS*         CLOUDY    32  31  96 SE15G23   30.12F FOG     WCI  21
$$

ILZ079-100>102-171600-
SOUTHWEST ILLINOIS

CITY           SKY/WX    TMP DP  RH WIND       PRES   REMARKS
ALTON          CLOUDY    37  36  93 SE15      30.05F FOG     WCI  28
BELLEVILLE     CLOUDY    37  34  87 SE8       30.06S WCI  31
CAHOKIA*       CLOUDY    39  35  86 SE12      30.05F FOG     WCI  32
SPARTA*        CLOUDY    36  34  92 SE8       30.09S FOG     WCI  30
$$

ILZ064>066-069>071-074>076-080>082-084>086-088>090-092>094-171600-
SOUTH-CENTRAL ILLINOIS

CITY           SKY/WX    TMP DP  RH WIND       PRES   REMARKS
CARBONDALE     CLOUDY    39  37  92 SE6       30.10S FOG     WCI  35
CAIRO*         CLOUDY    42  38  87 SE6       30.12S FOG
EFFINGHAM*     FOG       33  33 100 SE16      30.14F VSB 1   WCI  23
MARION         PTSUNNY   39  39 100 SE13      30.12F FOG     WCI  32
MT. VERNON     CLOUDY    35  35 100 E7        30.11F FOG     WCI  29
CENTRALIA*     CLOUDY    37  35  93 SE12      30.09F FOG     WCI  29
SALEM*         CLOUDY    36  33  90 SE9       30.09F FOG     WCI  29
METROPOLIS*    CLOUDY    41  38  89 E6        30.13F FOG
$$

ILZ067-068-072-073-078-083-087-091-171600-
SOUTHEAST ILLINOIS

CITY           SKY/WX    TMP DP  RH WIND       PRES   REMARKS
LAWRENCEVILLE  CLOUDY    35  33  92 SE9       30.17S FOG     WCI  28
FLORA*         FOG       34  34  98 SE9       30.14F VSB 1/2 WCI  27
FAIRFIELD*     FOG       34  34 100 SE8       30.13F VSB 1/2 WCI  27
HARRISBURG*    MOSUNNY   37  36  94 E8        30.15S FOG     WCI  31
ROBINSON*      CLOUDY    32  32 100 SE9       30.16F FOG     WCI  24
CARMI*         FOG       35  35 100 SE8       30.15S VSB 3/4 WCI  29
$$

ABBREVIATIONS USED IN REMARKS
   TC - TEMPERATURE IN CELSIUS
  WCI - WIND CHILL INDEX
   HX - HEAT INDEX
  VSB - VISIBILITY
$$




USA.gov is the U.S. government's official web portal to all federal, state and local government web resources and services.